Location: Arbon
(43.0005°N, 0.7472°E)
Time: 20:11:29
(UTC+00:00)

Courier 1B Rocket - Pass Details

Date: 06 December 2020
Orbit: 920 x 1202 km, 28.2° (Epoch: 22 January)

Event Time Altitude Azimuth Distance (km) Brightness Sun altitude
Rises 04:13:21 0° 242° (WSW) 3,992 - -32.2°
Reaches altitude 10° 04:16:37 10° 230° (SW) 3,066 - -31.6°
Exits shadow 04:21:15 25° 194° (SSW) 2,194 6.7 -30.8°
Maximum altitude 04:22:42 26° 177° (S) 2,135 6.8 -30.5°
Drops below altitude 10° 04:28:55 10° 125° (SE) 3,129 8.3 -29.4°
Sets 04:32:16 0° 113° (ESE) 4,089 9.3 -28.7°
